Weather Roundup
Issued by NWS Chicago, IL

Home | Current Version | Previous Version | Graphics & Text | Print | Product List | Glossary On
Versions: 1 2 3 4 5 6 7 8 9 10 11 12 13 14 15 16 17 18 19 20 21 22 23 24 25 26 27 28 29 30 31 32 33 34 35 36 37 38 39 40 41 42 43 44 45 46 47 48 49 50
000
NZUS59 KLOT 221908
HRRLOT

CHICAGO AREA WEATHER ROUNDUP
NATIONAL WEATHER SERVICE CHICAGO/ROMEOVILLE IL
200 PM CDT FRI JUL 22 2016

NOTE: "FAIR" INDICATES FEW OR NO CLOUDS BELOW 12,000 FEET WITH NO
SIGNIFICANT WEATHER AND/OR OBSTRUCTIONS TO VISIBILITY.

* THESE STATIONS ARE NOT UNDER NWS QUALITY CONTROL. THEY ALSO MAY NOT
  REPORT WEATHER SUCH AS PRECIPITATION OR FOG.

ILZ005-006-012>014-019>023-222000-
NORTHEAST ILLINOIS

CITY           SKY/WX    TMP DP  RH WIND       PRES   REMARKS
OHARE          PTSUNNY   85  72  65 W9        30.02S HX  91
MIDWAY         PTSUNNY   87  70  56 W10       30.02S HX  92
AURORA         MOSUNNY   85  73  67 SW7       30.04F HX  91
LANSING*       PTSUNNY   85  69  59 W9        30.03F HX  89
JOLIET*        PTSUNNY   84  74  70 SW7       30.04F HX  91
WAUKEGAN       MOSUNNY   88  72  58 VRB6      30.01S HX  94
DUPAGE AIRPORT PTSUNNY   85  72  65 SW10      30.04S HX  91
WHEELING       MOSUNNY   85  71  63 W9        30.03S HX  90
MORRIS*        MOSUNNY   83  73  72 W6        30.03F HX  89
LEWIS AIRPORT* PTSUNNY   83  71  66 W12       30.04F HX  88
NORTHERLY ISL    N/A     87  67  51 SW6         N/A  HX  90
$$

WIZ051-052-058>065-066-070>072-222000-
SOUTHEAST WISCONSIN

CITY           SKY/WX    TMP DP  RH WIND       PRES   REMARKS
MILWAUKEE      MOSUNNY   88  71  57 E7        30.00F HX  94
KENOSHA*       MOSUNNY   88  72  58 VRB6      30.02S HX  94
RACINE*        MOSUNNY   88  70  55 E7        30.02F HX  93
BURLINGTON     SUNNY     87  72  60 NW5       30.02S HX  94
WAUKESHA       MOSUNNY   86  70  58 NW7       30.03S HX  90
WEST BEND      MOSUNNY   88  70  55 NW7       30.01S HX  92
$$

INZ001>003-010>013-019-020-222000-
NORTHWEST INDIANA

CITY           SKY/WX    TMP DP  RH WIND       PRES   REMARKS
GARY*          PTSUNNY   88  77  70 W12       30.03F HX 100
MICHIGAN CITY* NOT AVBL
RENSSELAER*    NOT AVBL
VALPARAISO     MOSUNNY   85  69  58 W9        30.04F HX  89
$$

LMZ740>746-222000-
SOUTHERN LAKE MICHIGAN

STATION/POSITION TIME  SKY/WX   TEMP WIND        PRES    VSBY
                                AIR  DIR/SP/G
                 (UTC)          (F)  (DEG/KT/KT) (MB)    (MI)
HARRISON CRIB    1800            82  270/  8/  9   N/A
BURNHAM HARBOR   1900            86  250/  5/ 12   N/A
CALUMET HARBOR   1800            84  240/  8/ 14 1016.3F
BURNS HARBOR     1806            79  280/  8/ 13 1017.3F
MICHIGAN CITY    1800            77  230/  9/  9   N/A
$$

ABBREVIATIONS USED IN REMARKS
   TC - TEMPERATURE IN CELSIUS
  WCI - WIND CHILL INDEX
   HX - HEAT INDEX
  VSB - VISIBILITY
$$




USA.gov is the U.S. government's official web portal to all federal, state and local government web resources and services.